Weather History for Dallas Addison, TX

Change the Weather History Date:

Wednesday, January 30, 2013

  Actual Average Record
Temperature  
Mean Temperature 48 °F -  
Max Temperature 55 °F 55 °F 68 °F (1998)
Min Temperature 41 °F 38 °F 24 °F (2000)
Degree Days  
Heating Degree Days 17    
Moisture  
Dew Point 25 °F    
Average Humidity 43    
Maximum Humidity 71    
Minimum Humidity 28    
Precipitation  
Precipitation 0.00 in - - ()
Sea Level Pressure  
Sea Level Pressure 29.94 in    
Wind  
Wind Speed 9 mph (WNW)    
Max Wind Speed 22 mph    
Max Gust Speed 33 mph    
Visibility 12 miles    
Events      
Averages and records for this station are not official NWS values.
T = Trace of Precipitation, MM = Missing Value Source: NWS Daily Summary

Daily Weather History Graph

Daily Weather History Graph

Search for Another Location

Airport:

Trip Planner

Search our weather history database for the weather conditions in past years. The results will help you decide how hot, cold, wet, or windy it might be!

Date:

Astronomy

Jan. 30, 2013 Rise Set
Actual Time 7:23 AM CST 5:58 PM CST
Civil Twilight 6:57 AM CST 6:24 PM CST
Nautical Twilight 6:28 AM CST 6:53 PM CST
Astronomical Twilight 5:58 AM CST 7:22 PM CST
Moon 9:41 PM CST (1/30) 9:06 AM CST (1/30)
Length of Visible Light 11h 26m
Length of Day
10h 34m
Waning Gibbous, 87% of the Moon is Illuminated
Jan 30
Waning Gibbous
Feb 3
Last Quarter
Feb 10
New
Feb 17
First Quarter
Feb 25
Full

Hourly Weather History & Observations

Time (CST) Temp. Windchill Dew Point Humidity Pressure Visibility Wind Dir Wind Speed Gust Speed Precip Events Conditions
12:15 AM 55.4 °F - 26.6 °F 33% 29.71 in 10.0 mi West 11.5 mph 18.4 mph N/A   Clear
12:35 AM 53.6 °F - 26.6 °F 35% 29.70 in 10.0 mi West 9.2 mph - N/A   Clear
12:55 AM 53.6 °F - 26.6 °F 35% 29.71 in 10.0 mi West 6.9 mph - N/A   Clear
1:15 AM 51.8 °F - 26.6 °F 38% 29.70 in 10.0 mi West 10.4 mph - N/A   Clear
1:35 AM 51.8 °F - 26.6 °F 38% 29.68 in 10.0 mi West 6.9 mph - N/A   Clear
1:55 AM 51.8 °F - 26.6 °F 38% 29.71 in 10.0 mi West 6.9 mph - N/A   Clear
2:15 AM 51.8 °F - 26.6 °F 38% 29.71 in 10.0 mi West 8.1 mph - N/A   Clear
2:35 AM 50.0 °F - 24.8 °F 37% 29.69 in 10.0 mi WNW 8.1 mph - N/A   Clear
2:55 AM 50.0 °F - 24.8 °F 37% 29.72 in 10.0 mi West 9.2 mph 17.3 mph N/A   Clear
3:15 AM 50.0 °F - 28.4 °F 43% 29.73 in 10.0 mi WNW 9.2 mph - N/A   Clear
3:35 AM 46.4 °F 41.5 °F 32.0 °F 57% 29.74 in 10.0 mi WNW 10.4 mph 17.3 mph N/A   Clear
3:55 AM 46.4 °F 41.5 °F 35.6 °F 66% 29.75 in 10.0 mi WNW 10.4 mph - N/A   Scattered Clouds
4:15 AM 44.6 °F 38.8 °F 35.6 °F 71% 29.76 in 10.0 mi WNW 11.5 mph 18.4 mph N/A   Mostly Cloudy
4:35 AM 44.6 °F 39.2 °F 33.8 °F 66% 29.76 in 10.0 mi NW 10.4 mph 25.3 mph N/A   Overcast
4:55 AM 44.6 °F 38.1 °F 33.8 °F 66% 29.80 in 10.0 mi WNW 13.8 mph 23.0 mph N/A   Overcast
6:47 AM 42.8 °F 37.0 °F 32.0 °F 66% 29.86 in 13.0 mi WNW 10.4 mph 21.9 mph N/A   Mostly Cloudy
7:50 AM 42.8 °F 35.1 °F 28.4 °F 57% 29.91 in 20.0 mi WNW 16.1 mph 28.8 mph N/A   Mostly Cloudy
8:47 AM 42.8 °F 33.8 °F 26.6 °F 53% 29.97 in 13.0 mi WNW 21.9 mph 33.4 mph N/A   Mostly Cloudy
9:55 AM 44.6 °F 37.4 °F 26.6 °F 49% 30.02 in 20.0 mi NW 16.1 mph 28.8 mph N/A   Mostly Cloudy
10:47 AM 44.6 °F 38.8 °F 26.6 °F 49% 30.04 in 13.0 mi NW 11.5 mph 25.3 mph N/A   Mostly Cloudy
11:47 AM 46.4 °F 39.5 °F 26.6 °F 46% 30.06 in 13.0 mi NW 17.3 mph 33.4 mph N/A   Mostly Cloudy
12:47 PM 50.0 °F - 23.0 °F 35% 30.05 in 13.0 mi NW 19.6 mph 32.2 mph N/A   Scattered Clouds
2:47 PM 51.8 °F - 21.2 °F 30% 30.04 in 13.0 mi West 17.3 mph 27.6 mph N/A   Scattered Clouds
3:53 PM 51.8 °F - 19.4 °F 28% 30.06 in 13.0 mi NW 17.3 mph 29.9 mph N/A   Scattered Clouds
4:59 PM 50.0 °F - 17.6 °F 28% 30.09 in 13.0 mi WNW 12.7 mph 25.3 mph N/A   Clear
5:47 PM 50.0 °F - 17.6 °F 28% 30.10 in 13.0 mi WNW 11.5 mph 21.9 mph N/A   Clear
6:47 PM 48.2 °F - 17.6 °F 30% 30.12 in 13.0 mi West 11.5 mph - N/A   Clear
7:47 PM 46.4 °F - 17.6 °F 32% 30.14 in 13.0 mi Calm Calm - N/A   Clear
8:47 PM 44.6 °F - 19.4 °F 37% 30.14 in 13.0 mi Calm Calm - N/A   Clear
9:15 PM 44.6 °F - 19.4 °F 37% 30.14 in 10.0 mi Calm Calm - N/A   Clear
9:35 PM 42.8 °F - 21.2 °F 42% 30.14 in 10.0 mi Calm Calm - N/A   Clear
9:47 PM 44.6 °F - 19.4 °F 37% 30.14 in 13.0 mi Calm Calm - N/A   Clear
9:55 PM 42.8 °F - 21.2 °F 42% 30.14 in 10.0 mi Calm Calm - N/A   Clear
10:15 PM 42.8 °F - 21.2 °F 42% 30.14 in 10.0 mi Calm Calm - N/A   Clear
10:35 PM 42.8 °F - 21.2 °F 42% 30.14 in 10.0 mi Calm Calm - N/A   Clear
10:55 PM 42.8 °F - 21.2 °F 42% 30.14 in 10.0 mi Calm Calm - N/A   Clear
11:15 PM 42.8 °F - 21.2 °F 42% 30.13 in 10.0 mi Calm Calm - N/A   Clear
11:35 PM 41.0 °F - 21.2 °F 45% 30.13 in 10.0 mi Calm Calm - N/A   Clear
11:55 PM 42.8 °F - 23.0 °F 46% 30.13 in 10.0 mi Calm Calm - N/A   Clear